Wind_Speed
38 37 35 32 31 32 33 32 31 30 30 30 30 30 29 29 28 28 30 32 33 35 34 33 34 32 29 27 27 29 30 29 29 29 29 29 29 29 28 28 27 28 29 30 31 31 32 33 33 32 31 30 29 29 28 28 28 29 30 31 31 32 31 31 32 32 31 32 31 31 31 30 29 29 28 28 28 28 28 27 27 28 28 29 29 29
40 38 35 33 34 35 34 33 32 32 32 32 31 31 31 30 29 29 32 33 35 37 35 35 37 35 32 30 29 29 30 30 31 31 29 29 30 30 30 29 29 30 31 32 33 33 34 34 34 33 32 31 31 30 30 30 30 30 31 32 32 32 31 31 32 32 31 32 31 31 31 31 30 30 29 29 29 28 28 28 29 29 29 29 29 30
42 39 36 36 37 36 36 35 34 34 33 33 33 33 32 32 31 31 32 34 36 38 38 38 39 38 35 33 31 31 32 31 31 31 30 30 30 30 31 31 32 33 34 35 36 36 36 36 35 34 33 32 32 32 32 32 32 31 32 32 32 32 32 31 32 32 32 32 32 31 31 31 31 30 29 29 29 29 29 29 30 30 30 30 30 30
43 41 39 39 38 37 37 37 36 36 35 35 35 34 34 33 34 34 34 35 36 38 40 41 42 42 38 35 32 32 33 32 31 31 31 30 31 31 32 33 33 34 35 37 38 39 39 37 36 34 34 33 32 33 33 34 33 33 32 32 33 33 33 32 32 33 33 33 33 32 32 32 31 30 29 29 29 29 29 30 31 31 30 30 31 30
45 43 42 40 39 39 38 38 37 38 37 37 37 36 35 35 35 36 36 36 37 39 41 43 46 46 41 37 33 32 34 33 31 32 33 32 33 34 34 33 33 33 35 36 37 38 39 38 36 35 34 33 33 34 34 34 33 33 33 33 33 34 34 34 33 34 34 34 33 33 33 32 31 30 30 29 29 29 30 31 31 31 31 30 30 30
46 45 44 42 40 40 39 39 39 40 40 39 38 37 37 37 37 37 38 39 39 40 41 44 49 49 43 38 34 33 35 33 31 31 33 35 35 36 34 32 32 32 32 33 35 36 37 37 36 35 34 34 34 34 34 34 33 33 34 34 34 35 36 36 35 35 35 34 34 33 33 32 32 31 30 30 30 30 31 32 31 31 31 31 31 31
47 46 45 44 42 41 41 42 41 41 41 41 39 38 38 39 39 39 39 40 41 42 43 45 50 53 49 41 35 35 36 33 31 31 33 36 37 36 35 33 32 31 31 32 33 33 34 35 34 34 34 34 33 34 34 34 34 34 34 35 35 36 37 37 36 36 36 35 34 33 32 32 32 31 31 30 31 32 32 32 32 32 31 31 31 31
48 47 46 45 45 44 44 44 42 42 43 42 41 40 40 40 40 40 40 41 42 44 46 48 50 56 56 46 37 37 36 33 31 31 33 36 36 36 36 35 34 32 32 33 33 32 33 33 33 33 33 33 33 34 34 34 35 35 35 36 36 36 37 38 37 36 36 35 34 33 33 33 32 32 32 32 32 33 33 33 32 32 32 32 32 32
51 50 49 48 48 48 46 45 44 44 44 43 42 42 42 41 41 40 41 42 43 46 47 49 51 57 59 51 43 39 36 35 33 31 32 34 35 36 36 36 35 34 33 33 33 33 33 33 33 33 33 33 33 35 35 35 36 36 36 37 37 36 37 37 37 37 36 35 34 34 33 33 33 33 33 33 34 34 34 34 34 34 33 33 33 33
54 53 51 50 50 48 46 46 45 45 44 44 44 44 43 42 41 41 41 42 46 49 48 49 53 57 59 56 48 40 37 37 36 34 33 33 33 35 36 37 36 34 33 33 33 33 34 34 34 34 34 34 34 36 36 37 37 38 38 38 37 36 36 36 36 36 35 34 34 34 34 34 34 34 34 34 35 35 36 35 35 35 34 34 35 35
56 55 54 52 50 48 47 46 46 45 45 45 45 45 44 43 42 41 43 44 49 51 49 51 55 58 61 60 51 42 39 39 38 36 34 31 31 32 34 35 35 34 34 33 33 33 34 34 34 34 35 35 35 36 37 38 38 38 38 38 37 36 36 36 35 34 34 34 34 34 34 34 34 35 35 36 36 37 37 37 36 36 36 36 36 35
57 56 54 52 50 48 47 47 46 46 46 46 45 44 43 43 42 43 45 47 52 53 51 54 57 59 63 62 53 46 43 41 40 38 34 31 30 30 31 32 33 35 35 34 34 34 34 34 34 34 34 35 35 36 37 38 38 38 37 37 36 36 35 36 35 34 33 33 34 34 35 35 35 36 37 37 37 38 38 38 37 37 37 37 36 36
56 55 53 53 52 51 50 49 48 48 47 45 43 41 41 41 43 47 50 52 55 55 54 56 59 62 64 59 53 49 45 43 42 39 36 34 32 31 32 32 34 36 36 36 36 36 36 35 35 34 35 35 35 36 37 38 37 37 36 36 36 36 35 35 35 33 33 33 34 34 35 35 36 37 38 38 38 38 39 39 39 38 38 38 37 37
56 56 56 56 55 53 52 50 48 47 45 43 42 40 41 43 47 51 53 55 57 57 56 58 61 64 63 58 54 50 47 45 42 39 38 38 35 33 33 34 35 37 37 38 38 37 37 37 36 35 35 35 35 37 38 38 38 37 36 36 36 36 35 35 34 33 33 34 34 35 36 36 37 38 38 38 38 39 40 41 40 40 40 40 40 39
58 58 57 55 54 52 50 48 47 45 45 45 44 44 45 47 49 52 53 55 58 59 59 61 63 64 61 58 56 53 49 45 42 38 38 41 40 35 34 35 36 37 37 37 37 37 37 37 37 36 35 35 36 37 37 37 37 37 36 36 36 36 35 35 34 34 34 35 35 36 36 37 37 38 38 38 39 40 41 42 42 42 42 42 42 43
58 58 56 54 52 51 49 48 47 47 47 47 46 48 49 49 48 50 52 55 58 61 63 64 65 64 61 59 58 56 50 46 43 40 38 40 41 38 35 36 36 37 37 37 37 37 38 37 37 36 36 36 36 37 37 37 37 37 36 36 36 36 35 35 34 34 34 35 36 36 37 37 37 37 38 39 40 41 43 43 43 44 44 45 45 46
58 57 55 53 52 51 50 50 49 49 49 49 50 51 51 49 48 50 53 56 59 63 65 65 65 64 61 59 57 54 50 47 45 42 39 39 40 39 38 37 35 36 37 37 37 37 37 37 36 37 37 37 37 37 38 38 37 37 36 36 36 36 35 35 34 34 35 35 36 37 37 38 38 38 39 40 41 42 43 44 45 45 46 47 48 49
57 57 56 55 54 53 52 52 52 51 52 53 54 53 51 50 51 53 55 58 61 64 67 67 66 65 63 58 54 52 50 48 45 41 39 37 37 38 38 37 36 36 36 36 36 37 37 37 37 38 38 38 38 38 38 38 37 37 36 36 35 35 35 35 36 36 36 36 37 38 38 39 39 39 40 41 42 43 44 45 46 47 48 48 50 51
59 59 58 57 57 56 55 55 55 55 56 57 56 55 53 54 55 56 59 61 63 66 69 69 68 65 61 56 52 51 49 45 43 42 39 36 35 36 37 37 37 37 36 36 36 37 38 38 38 38 38 38 38 38 38 38 37 37 36 36 36 35 36 36 37 37 37 37 38 39 39 40 40 40 41 42 43 44 45 46 48 48 49 51 52 53
61 61 61 61 61 60 60 60 61 60 60 59 58 58 58 59 60 61 63 64 65 68 70 71 69 62 54 52 51 50 46 43 44 44 39 35 35 36 36 37 37 36 35 35 35 36 37 36 36 36 36 37 38 39 39 39 38 37 37 37 36 36 36 37 38 38 39 39 39 40 40 41 41 41 42 43 44 45 46 47 49 50 51 53 54 56
64 65 65 66 66 66 65 65 64 62 61 60 59 61 62 62 64 65 66 67 67 69 69 71 71 58 47 49 50 48 46 44 45 45 38 34 35 36 36 36 36 35 34 34 34 35 36 36 36 36 37 37 38 39 40 40 39 38 38 38 38 37 37 38 39 40 41 41 41 41 42 42 42 42 43 44 45 46 47 49 50 52 54 55 56 57
66 67 68 69 69 69 68 67 65 63 63 63 62 64 65 65 66 66 68 70 69 69 67 69 69 54 42 47 48 46 47 47 45 44 40 37 36 36 36 36 36 35 34 34 34 35 36 36 36 37 37 38 38 38 39 39 40 40 39 39 39 39 39 39 40 42 42 43 42 42 43 43 43 44 45 46 46 48 49 51 53 54 56 57 58 58
61 63 66 69 71 71 70 68 67 67 67 67 68 69 68 69 70 70 70 69 67 66 64 65 66 50 39 45 47 46 50 49 47 45 43 40 38 38 38 37 36 35 33 34 34 35 36 36 37 37 38 38 38 38 38 39 40 40 40 40 40 40 41 42 43 43 44 44 43 43 44 44 45 46 47 47 48 50 52 54 55 56 57 57 58 59
58 61 65 68 70 71 71 70 70 69 70 72 73 74 72 72 70 68 66 64 64 64 61 63 62 50 42 46 49 50 53 52 51 50 47 43 40 41 41 38 36 35 34 34 35 36 38 38 38 38 38 38 38 38 38 38 39 40 41 41 42 42 43 44 44 45 46 46 46 46 47 47 47 48 48 49 51 52 54 55 56 56 57 58 59 59
55 56 59 62 65 68 70 71 72 73 74 75 74 73 71 68 66 64 63 61 62 60 57 60 60 51 46 48 50 53 54 52 53 54 52 47 42 43 44 41 39 38 37 37 38 39 40 40 40 41 41 42 41 41 41 40 40 40 41 42 43 44 45 45 45 46 47 48 48 48 48 48 48 49 49 51 52 53 54 55 56 57 59 59 60 61
54 53 53 55 60 66 70 71 70 70 69 68 67 65 63 62 61 60 59 58 59 57 57 61 59 51 48 50 51 52 52 52 52 54 55 50 45 46 47 45 44 42 41 42 41 42 43 43 44 45 46 46 45 44 44 42 42 41 41 42 44 45 46 46 46 46 47 48 48 48 48 48 48 49 50 51 52 53 55 56 58 59 60 61 62 62
58 58 57 56 58 61 65 66 66 65 63 63 61 60 59 58 57 57 57 59 60 59 61 62 58 53 51 51 51 51 51 53 52 54 55 52 50 51 51 49 48 46 46 46 45 45 45 45 46 46 47 46 45 45 45 44 43 43 43 44 44 45 46 47 47 47 47 47 47 47 47 47 48 49 51 52 54 55 56 57 59 60 61 62 62 62
60 61 61 61 61 61 61 61 62 64 64 63 62 61 60 59 59 59 61 62 61 63 65 61 57 58 55 51 51 51 52 54 54 55 56 54 53 53 52 52 52 50 50 50 49 48 47 46 45 45 45 45 44 44 44 44 44 44 44 45 45 46 46 46 46 46 45 45 45 45 46 47 49 50 52 53 55 56 57 58 60 60 60 60 61 61
63 63 62 62 62 62 60 60 61 63 63 63 64 63 62 61 62 63 64 63 63 67 68 61 60 63 59 53 53 53 53 55 57 57 56 55 54 53 53 55 55 54 54 53 51 49 48 46 45 44 45 45 44 44 44 44 45 45 45 45 45 45 46 46 46 45 45 45 45 46 47 49 50 51 52 53 54 56 57 58 58 58 58 59 60 59
64 64 62 62 64 63 61 60 61 63 64 65 66 66 64 64 64 64 65 64 64 68 68 62 63 65 59 55 55 55 55 57 58 58 56 55 55 55 56 56 56 56 56 54 52 51 49 47 46 45 46 46 47 47 47 45 44 44 45 45 45 46 46 46 47 47 47 47 47 49 49 50 51 52 52 53 54 56 56 56 55 56 57 58 57 56
59 59 57 57 60 61 58 58 60 63 65 66 67 67 66 65 66 66 66 64 65 68 66 62 63 62 55 53 54 55 56 58 58 56 54 54 55 56 56 56 56 56 55 53 52 51 50 49 47 46 47 48 50 50 49 47 44 43 43 43 44 45 47 48 49 49 50 50 50 51 51 51 51 51 52 53 54 54 55 55 55 56 56 57 57 59
58 58 57 57 59 59 54 54 57 59 61 64 65 65 65 65 66 66 63 61 62 64 63 63 64 58 51 51 53 54 56 58 56 54 53 54 56 57 56 56 56 55 54 53 53 52 52 51 48 48 49 51 53 52 50 48 45 42 41 41 43 46 48 49 49 50 51 51 52 51 51 51 52 52 53 54 54 54 55 56 55 54 56 59 60 62
58 56 54 55 58 57 52 52 54 56 61 64 62 59 60 62 63 62 59 57 56 59 62 64 63 56 51 53 56 56 58 58 56 55 55 56 57 57 57 56 56 55 55 54 53 52 52 52 51 51 53 54 55 53 51 49 45 43 42 43 44 47 49 48 48 50 51 52 53 53 53 53 54 54 55 55 56 57 57 56 55 53 55 59 61 63
62 59 54 53 54 53 50 51 55 58 64 64 58 56 57 59 60 60 58 55 52 53 57 59 59 56 54 55 56 57 57 56 55 56 56 58 58 58 56 56 56 57 55 54 53 53 53 54 54 55 55 55 54 52 51 48 46 45 45 45 46 48 49 49 49 51 52 52 53 54 54 55 55 55 56 57 57 57 55 55 58 59 61 64 67 69
66 65 62 59 58 56 53 54 59 64 66 62 56 56 58 59 60 61 61 59 56 55 55 55 55 53 51 51 53 54 55 56 56 56 56 56 57 56 56 56 55 55 54 54 55 56 56 57 56 56 56 55 53 51 50 48 47 46 46 45 45 46 47 49 49 50 51 52 53 54 54 55 55 55 56 55 55 54 52 54 59 62 64 65 65 67
63 64 65 64 63 61 58 60 64 66 64 59 55 55 57 58 60 62 64 63 60 60 60 59 56 53 52 53 54 54 56 58 58 58 56 56 56 56 56 55 52 52 53 55 57 58 58 58 56 56 55 53 52 51 49 48 47 46 44 44 44 45 46 48 50 51 53 53 54 55 54 54 54 55 55 54 54 56 56 57 58 58 59 60 63 67
57 60 62 63 64 62 60 61 61 60 59 57 55 55 55 55 54 56 60 60 57 59 62 64 62 60 58 57 55 54 55 57 58 57 54 54 54 54 54 53 53 54 56 57 59 58 57 56 55 54 53 52 51 50 49 49 48 47 46 46 47 49 51 53 54 55 55 56 57 57 55 54 54 54 54 53 54 55 56 56 56 58 60 64 68 71
58 59 60 62 62 60 59 59 59 59 60 60 57 54 51 49 47 49 56 56 52 53 58 61 61 59 57 56 54 53 54 56 59 55 50 49 51 52 54 55 56 57 58 58 57 56 55 54 54 53 52 51 51 50 49 50 49 49 50 51 53 55 57 57 57 57 58 58 59 58 56 54 53 53 54 54 54 53 53 55 59 63 67 69 71 70
61 61 62 64 64 61 60 61 61 62 62 59 55 52 50 48 47 50 58 56 46 44 51 56 57 55 54 53 51 51 54 56 55 50 47 49 52 54 56 57 57 57 57 56 55 54 53 53 53 53 53 52 52 52 52 52 52 53 54 55 57 58 59 59 59 59 60 59 58 56 55 54 54 55 56 54 52 52 55 60 65 68 71 71 70 68
62 61 62 65 66 64 63 65 65 64 62 56 54 54 54 53 51 55 61 55 43 41 47 53 53 50 48 49 49 50 53 54 51 48 48 51 53 53 55 55 55 55 54 53 52 52 51 52 52 52 53 53 53 53 53 53 54 55 57 58 59 60 60 61 61 61 60 58 55 54 55 56 57 56 54 53 53 57 62 66 68 70 70 70 69 68
63 62 62 64 64 63 64 66 67 66 61 55 54 57 58 58 59 61 60 53 47 47 49 50 51 48 45 47 50 52 53 53 52 51 50 50 51 51 52 52 52 51 50 50 50 49 49 49 50 50 51 52 53 53 54 56 57 58 59 60 61 61 61 62 62 60 58 55 54 56 57 56 54 53 53 55 58 61 65 67 68 68 68 68 69 70
64 63 62 62 62 62 63 65 68 68 59 53 55 61 63 63 64 62 58 53 51 50 49 51 54 53 51 52 53 54 54 55 54 53 52 52 52 52 51 51 50 49 49 50 50 50 50 51 51 52 53 53 54 55 56 57 57 58 59 59 60 60 60 59 58 56 56 56 56 56 55 53 52 53 55 58 60 62 65 66 67 68 68 69 69 70
64 63 63 62 61 62 63 66 69 66 57 51 56 62 63 63 62 59 57 55 54 53 53 55 57 57 58 57 56 55 55 55 55 54 54 54 53 52 52 52 52 52 52 51 51 50 50 50 50 51 52 52 53 54 54 55 56 57 58 58 58 58 57 56 56 55 55 55 55 54 53 53 54 56 57 59 61 63 64 65 65 66 67 68 68 69
71 70 69 68 66 67 68 68 67 64 58 55 57 59 58 56 54 52 52 53 53 54 56 57 58 58 59 58 57 57 56 55 56 56 56 55 55 54 54 53 52 51 49 48 48 47 47 48 49 50 51 52 54 55 55 56 57 58 58 58 57 56 56 55 54 54 53 53 52 52 53 54 56 57 58 59 60 61 61 62 63 65 66 67 68 69
70 70 70 69 69 69 67 63 60 59 58 59 60 59 57 55 54 53 53 53 53 54 54 54 55 56 57 57 57 57 57 56 56 56 55 53 51 50 49 48 48 47 47 47 48 49 50 51 51 52 54 55 56 57 57 57 57 57 57 56 55 55 54 53 52 52 51 52 52 53 53 54 55 56 56 57 58 59 61 62 63 64 66 67 69 70
61 61 62 65 67 67 65 63 61 59 58 58 58 58 59 58 58 59 59 59 58 58 57 57 57 56 57 57 56 56 57 56 55 53 50 48 45 44 45 45 46 48 49 50 50 51 52 52 53 54 55 55 56 56 56 55 55 54 54 53 53 52 52 51 51 51 51 51 52 52 52 53 54 55 56 57 58 60 61 62 64 65 67 68 70 71
60 61 61 63 65 65 65 63 60 57 56 55 55 55 55 57 59 61 62 62 61 59 58 58 58 58 58 58 58 58 58 56 54 51 48 46 46 46 47 48 49 50 51 51 51 52 52 52 53 53 54 54 54 53 52 52 52 52 52 52 52 51 51 51 51 51 51 51 51 52 53 54 55 56 57 58 59 61 62 64 65 67 68 69 70 71
60 62 63 64 65 64 64 61 56 54 54 53 54 53 51 51 52 54 55 56 57 57 56 56 56 56 57 58 58 58 56 55 53 51 50 49 50 50 50 51 51 51 51 51 51 51 51 51 51 51 51 51 51 51 51 51 51 51 51 51 51 51 50 50 50 50 50 51 52 53 54 55 56 57 59 60 61 63 64 66 67 68 69 70 70 70
67 68 69 69 68 67 65 60 57 57 56 54 54 54 52 52 53 53 50 48 48 49 51 51 52 53 54 55 54 53 52 52 51 51 51 51 51 51 52 52 51 51 50 50 49 49 48 48 49 49 50 51 51 51 52 52 52 52 52 51 51 51 50 50 50 50 51 52 53 54 55 56 58 59 61 62 63 65 66 67 68 69 69 69 70 70
70 72 72 71 72 72 68 62 60 62 61 59 57 56 55 56 58 57 54 49 46 45 45 46 46 47 47 47 46 46 47 48 49 50 51 51 51 51 50 49 48 47 46 46 46 47 48 49 51 52 53 54 53 54 54 54 54 54 53 53 52 52 52 52 52 52 53 54 55 56 57 58 60 61 62 64 65 66 67 67 68 68 69 69 70 70
64 65 67 68 70 70 67 64 65 67 65 63 63 61 60 61 61 60 58 57 55 54 53 52 50 49 47 47 46 46 46 46 46 47 47 47 46 45 44 44 45 46 48 50 52 53 55 56 57 58 58 57 56 56 56 55 55 54 54 54 53 52 52 52 52 53 54 55 56 57 58 60 61 63 64 65 66 67 67 67 68 68 69 70 71 71
Wind_Direction
242 243 245 246 248 250 253 256 259 261 263 264 266 269 270 272 275 277 277 277 279 279 281 284 284 285 288 292 295 297 300 303 303 302 302 301 298 293 291 290 290 286 283 283 286 287 288 287 286 284 283 282 282 282 282 283 285 286 286 285 284 282 282 281 281 280 280 279 279 278 277 276 275 273 271 270 269 268 269 270 271 272 272 273 273 275
243 244 245 247 249 252 254 257 259 261 263 265 267 269 271 273 274 276 277 279 280 280 282 284 283 284 287 289 292 296 298 301 301 301 301 299 295 292 290 288 286 285 285 286 287 286 286 286 286 286 284 283 282 282 283 283 284 285 286 286 285 283 282 280 280 279 278 277 276 276 275 274 273 271 270 269 268 268 268 269 271 272 273 274 276 278
243 245 246 247 249 252 255 257 260 261 263 266 267 269 271 274 275 276 278 280 281 282 283 284 283 283 284 287 291 296 297 298 301 302 300 297 293 290 287 286 286 286 286 286 286 286 286 286 287 286 284 282 283 283 282 281 282 284 285 287 287 285 284 281 280 279 278 277 276 274 273 272 271 270 269 268 267 267 267 269 270 272 273 276 278 279
244 245 246 248 251 253 256 258 260 262 264 266 267 270 272 274 276 277 279 280 282 284 284 285 283 281 283 286 291 296 297 299 303 303 301 297 292 287 285 285 286 286 286 285 285 285 285 285 285 284 283 281 281 280 279 279 279 282 284 286 287 286 284 282 280 279 278 277 275 273 272 270 270 269 268 266 266 266 266 268 270 271 273 276 277 278
245 246 248 250 252 254 256 259 261 263 264 265 267 270 272 275 277 279 280 281 282 283 284 286 283 279 281 286 291 295 296 299 304 304 303 299 292 288 287 287 286 285 284 284 283 283 282 283 283 283 282 280 279 279 278 278 279 281 284 285 286 286 284 282 280 279 278 277 275 273 271 270 269 268 267 266 266 266 267 268 269 271 273 275 277 278
246 249 250 251 253 255 258 259 261 263 263 264 267 269 272 275 277 279 281 282 283 283 284 286 284 280 280 284 289 292 293 297 302 303 301 297 293 291 290 289 286 284 284 283 282 281 281 281 282 282 281 279 278 278 279 279 280 282 284 285 286 286 285 282 280 278 278 278 275 273 271 270 269 268 267 266 265 266 266 267 269 271 274 276 277 277
247 250 252 253 254 256 257 259 261 262 263 265 267 269 272 274 277 279 281 283 283 284 284 284 284 282 281 283 289 290 290 295 301 303 298 293 292 292 292 289 286 284 283 284 285 285 284 283 282 282 280 279 279 279 280 281 281 282 284 286 287 286 284 282 279 278 278 277 276 273 270 269 268 267 266 265 265 266 267 268 270 272 274 276 278 278
248 250 251 253 254 254 256 259 260 261 263 266 268 270 271 273 276 278 280 282 283 285 285 282 284 285 282 283 288 288 289 295 301 302 296 291 290 290 288 286 283 281 281 283 286 287 287 286 285 284 282 281 281 281 280 280 281 282 284 287 287 285 283 281 279 276 276 276 274 272 270 269 267 266 265 265 266 267 268 269 270 272 275 277 278 278
247 248 249 250 252 254 257 258 260 261 264 267 268 269 271 273 275 276 279 281 284 285 283 282 286 287 284 285 287 287 291 295 298 300 296 290 288 285 284 282 280 280 281 282 285 286 287 286 285 283 283 282 281 280 280 280 281 281 284 287 287 285 283 281 278 276 274 274 272 271 269 268 267 266 266 266 267 268 268 268 270 272 275 277 278 278
246 247 249 250 252 255 257 258 260 262 265 266 267 269 270 271 273 276 279 282 284 283 281 283 286 288 286 283 284 290 293 293 296 301 298 290 286 282 280 279 280 280 281 282 284 284 283 283 283 283 282 282 280 279 280 280 280 281 284 287 287 284 282 281 278 275 273 272 271 269 268 267 267 266 267 267 267 268 268 268 269 272 275 277 278 277
247 248 249 251 253 255 257 259 261 263 264 265 266 267 269 271 274 277 279 280 281 281 282 284 285 288 285 280 284 292 292 292 297 301 298 291 286 282 279 279 279 281 282 283 283 283 282 282 282 282 281 280 279 279 280 280 280 281 283 285 285 284 282 280 278 275 272 271 270 268 267 267 266 266 266 267 267 267 267 267 269 272 275 277 277 276
250 251 252 254 255 256 257 259 260 261 262 263 264 267 270 273 274 275 276 277 279 280 283 284 284 285 281 280 287 292 292 295 299 299 297 291 286 283 280 278 278 280 282 283 283 283 282 283 283 283 282 281 280 280 279 279 279 281 283 284 283 282 280 278 277 275 272 271 270 269 268 267 266 266 266 266 267 267 267 267 269 272 275 276 276 276
251 252 253 254 254 255 256 256 258 259 262 264 266 268 270 272 272 273 275 276 278 280 281 281 283 281 278 280 288 291 293 297 298 298 294 288 285 283 279 277 276 278 281 283 283 282 281 282 283 283 283 282 281 280 279 278 279 281 282 282 281 281 279 277 276 274 272 271 270 268 268 267 266 266 267 267 267 267 267 268 270 273 274 275 275 276
249 250 250 252 253 254 256 257 260 262 263 265 266 266 267 268 271 273 275 277 277 279 280 280 281 278 278 283 288 289 293 295 296 296 290 287 286 283 280 278 276 277 279 280 281 281 280 280 280 282 283 282 281 279 278 278 279 280 280 280 279 279 277 275 273 272 271 270 269 269 268 267 267 267 267 267 267 268 268 269 271 273 274 275 275 277
251 250 251 253 255 257 258 260 261 262 263 263 263 264 265 267 271 274 275 276 277 278 278 279 279 278 281 286 287 289 292 295 295 291 285 284 287 287 285 282 278 277 277 278 279 280 280 279 278 280 282 281 280 278 278 277 277 278 278 279 278 278 276 274 272 270 269 270 270 269 268 268 267 267 268 268 269 269 270 271 272 273 274 275 276 278
254 254 254 256 257 259 260 261 261 262 262 262 263 263 265 268 271 272 273 274 276 277 278 279 280 281 284 285 286 289 292 293 292 287 283 285 288 291 290 285 279 276 275 276 277 278 278 278 278 280 282 283 281 279 278 277 277 277 278 279 279 278 277 274 272 271 270 269 269 269 268 267 267 268 268 269 270 270 271 272 273 274 275 275 276 278
255 255 255 256 258 258 259 260 260 260 261 261 262 263 266 268 268 269 271 273 275 277 278 280 281 282 283 282 283 288 290 290 287 284 283 285 288 291 292 288 281 275 274 275 275 277 278 278 280 282 283 284 283 281 279 278 278 278 279 280 279 278 277 275 273 270 269 268 268 268 267 267 267 268 269 269 270 271 272 272 273 274 274 275 277 279
257 258 256 257 258 258 258 259 259 259 260 261 262 264 265 265 266 268 271 273 275 277 279 280 281 282 282 280 282 287 288 286 284 282 282 284 286 289 292 293 287 280 278 278 278 279 279 280 282 283 283 283 283 281 279 278 277 277 278 279 278 277 276 273 271 270 268 267 267 267 267 268 268 269 270 270 271 271 272 272 273 274 275 276 278 279
257 258 257 257 258 258 258 258 258 259 261 262 263 265 265 266 268 270 272 273 275 276 278 279 279 279 280 281 283 285 284 283 282 281 281 285 288 289 291 292 289 284 282 282 282 282 282 283 283 282 282 282 281 280 279 278 277 277 277 278 277 275 273 271 271 270 269 267 266 267 267 268 269 269 270 270 270 271 272 272 273 274 276 277 278 279
256 257 256 255 256 257 256 256 257 259 261 263 264 265 266 267 269 269 270 272 273 275 277 278 278 277 278 281 282 282 281 280 279 278 280 287 290 289 287 286 285 285 286 286 286 285 285 284 283 282 282 281 280 280 279 279 278 277 277 277 275 273 271 270 269 269 268 268 267 267 267 267 268 268 269 269 270 271 272 273 274 275 276 277 278 279
254 254 254 253 253 254 255 256 258 259 260 262 263 264 265 266 268 269 270 271 272 273 275 277 277 276 277 279 279 279 278 274 275 279 283 289 288 286 284 282 284 286 288 289 288 287 286 284 283 282 282 282 282 281 281 280 280 279 278 277 275 273 272 270 269 268 267 267 266 266 266 267 267 268 269 270 271 272 273 274 275 276 276 277 279 280
255 255 255 255 254 254 256 257 258 259 259 260 261 262 263 265 267 267 268 269 270 271 273 277 278 276 274 276 277 277 275 272 275 282 286 288 287 284 281 280 282 285 287 288 287 286 285 284 283 283 282 283 284 284 283 282 280 280 278 277 276 275 274 271 269 267 266 266 266 266 267 267 269 270 271 272 272 273 274 275 276 277 278 279 281 282
255 255 255 255 255 255 255 255 256 257 258 259 259 261 262 263 264 265 266 267 269 271 273 276 277 274 271 274 275 274 274 274 279 283 284 285 286 283 279 280 282 284 284 285 285 286 286 285 283 282 282 283 284 285 284 282 281 280 278 278 277 275 274 271 269 268 267 267 267 268 269 271 272 273 274 275 275 275 276 277 278 279 280 281 283 284
255 254 254 254 255 254 255 255 255 256 258 259 260 262 262 263 264 265 265 267 267 269 272 274 275 273 269 271 272 272 274 277 281 283 282 283 284 281 279 281 282 281 281 282 284 285 286 285 284 283 284 285 285 284 283 281 280 279 278 277 276 274 272 271 270 269 269 270 270 271 273 274 276 277 277 277 277 278 278 279 280 281 282 283 285 286
257 257 257 257 256 255 254 255 256 257 259 260 261 263 264 265 265 265 266 266 267 269 272 272 272 271 271 272 272 272 275 279 282 282 282 283 284 280 280 281 280 280 281 282 284 284 284 284 283 284 286 287 288 286 284 282 280 278 277 276 275 273 272 271 270 270 271 272 273 274 276 277 278 278 278 278 279 279 280 281 282 283 284 285 286 287
255 256 255 255 255 256 256 256 257 260 261 263 263 264 265 265 265 265 266 266 266 267 267 266 269 273 275 275 274 276 278 280 281 281 282 284 283 280 280 282 281 281 281 283 285 286 286 285 284 284 286 288 288 288 286 285 283 280 278 276 274 273 273 272 271 271 271 272 274 275 276 277 278 279 279 279 280 280 282 283 283 284 285 286 287 287
253 253 253 252 253 256 258 259 260 260 260 260 260 260 261 260 261 261 260 261 264 264 262 264 270 274 273 274 277 279 279 279 278 278 279 281 280 280 282 282 281 281 282 285 288 288 287 286 285 286 287 287 287 287 287 287 285 282 278 275 274 273 273 272 272 272 272 273 274 275 277 278 279 280 280 280 281 282 283 283 284 284 285 286 286 287
253 253 254 254 254 255 257 258 259 258 258 258 258 257 257 258 258 258 258 261 263 263 263 268 272 272 271 272 275 275 275 276 276 275 276 277 279 280 281 279 279 282 285 287 288 287 287 287 287 287 287 287 287 287 288 288 286 281 278 275 273 272 272 272 272 272 272 273 274 276 277 279 280 280 280 281 281 282 282 283 284 284 286 286 286 286
255 255 255 256 256 256 255 255 256 257 259 259 259 258 259 259 259 259 261 264 265 265 267 270 270 268 269 270 270 271 273 273 273 273 274 276 278 277 275 275 279 283 285 286 286 288 289 289 288 288 288 289 289 288 288 286 282 280 277 275 273 272 272 271 271 271 272 273 275 277 278 279 279 280 280 280 280 280 281 282 284 285 286 287 287 287
259 259 259 259 260 259 257 256 256 257 258 258 259 259 259 259 260 261 264 266 265 264 266 268 267 267 270 272 271 271 271 270 271 273 275 276 275 273 272 275 279 281 283 284 287 289 291 290 290 290 290 290 289 288 286 283 281 279 276 273 271 270 270 270 271 271 272 274 276 277 278 278 279 279 279 279 279 280 281 283 284 285 285 287 288 288
262 262 262 263 263 261 258 257 256 255 256 256 256 256 257 258 260 262 263 264 263 263 266 269 269 269 272 273 272 271 270 269 270 271 272 271 269 269 272 275 278 280 282 285 288 289 290 290 290 290 290 289 288 287 285 284 282 280 275 272 270 269 268 269 270 271 273 275 276 277 278 279 280 280 280 280 280 280 281 283 285 285 286 288 288 286
261 263 264 265 264 262 260 258 257 256 255 254 252 253 255 258 260 262 263 264 264 265 267 267 267 270 274 275 273 271 268 266 266 265 264 263 264 267 271 274 277 280 282 284 286 288 289 289 288 287 287 287 287 287 285 284 282 279 275 271 269 268 268 268 270 272 273 274 276 279 281 282 282 282 282 280 280 281 282 285 287 286 285 285 285 286
257 259 261 260 260 261 259 259 259 257 254 251 250 253 258 260 260 260 261 262 264 265 265 264 266 269 270 269 267 265 263 263 263 262 261 262 265 267 271 274 278 280 281 283 284 284 284 284 284 284 284 286 287 286 284 282 282 279 274 271 270 270 269 270 271 272 274 276 279 281 282 284 284 284 283 282 282 283 284 286 287 285 283 284 286 288
253 254 254 253 253 254 255 257 257 253 252 252 253 255 257 257 258 259 259 260 262 263 262 262 263 264 263 264 266 266 267 267 266 265 265 265 267 269 272 276 278 279 280 280 280 279 280 281 282 282 283 285 285 285 283 282 281 279 275 273 272 272 272 272 273 274 276 278 280 281 282 283 283 283 282 281 281 283 284 286 286 284 283 285 287 288
253 253 253 251 250 251 252 253 251 251 256 260 258 255 255 256 258 259 259 259 260 262 263 263 263 264 265 266 268 268 268 268 267 266 266 267 269 272 275 277 278 278 277 277 277 278 279 280 281 281 282 282 283 283 283 282 280 277 275 273 272 272 273 275 276 277 278 279 279 281 282 282 282 281 281 281 281 283 283 282 281 281 282 283 284 284
249 251 251 250 249 250 250 250 251 257 263 265 262 258 257 257 259 261 261 260 261 264 266 266 266 265 265 264 265 266 265 265 265 266 269 272 274 276 276 276 275 273 273 274 276 277 279 279 279 280 280 281 282 282 282 280 279 277 275 274 275 275 276 277 278 278 278 279 279 281 282 282 281 280 280 279 278 277 277 278 279 281 282 281 280 280
246 248 248 248 248 249 250 251 255 259 260 260 262 263 262 262 262 263 263 262 261 263 265 266 266 265 265 265 266 265 264 264 265 267 271 274 275 274 273 272 270 270 271 273 274 276 277 278 278 279 279 280 280 281 280 279 278 277 276 277 279 281 281 282 281 280 280 281 281 282 282 282 280 279 278 276 275 276 279 282 283 282 280 279 279 280
248 250 250 250 250 250 250 252 254 254 255 259 264 266 265 262 258 258 258 257 256 259 263 264 265 264 264 265 265 264 262 263 266 270 272 271 269 268 268 267 267 269 270 272 273 274 275 276 277 277 277 277 278 279 279 278 278 277 278 280 282 284 285 285 284 283 283 283 284 284 284 283 281 279 278 279 281 284 285 284 281 279 278 278 279 279
253 252 251 252 252 251 251 252 252 253 256 262 265 262 257 253 252 254 255 255 256 260 261 260 259 258 259 261 262 261 261 263 267 269 266 263 263 263 264 266 267 269 270 271 272 273 274 275 275 275 275 275 276 277 278 278 279 279 280 281 283 284 284 284 283 283 283 284 284 285 284 282 280 280 282 284 285 284 281 278 277 276 276 277 277 277
253 251 250 250 252 253 252 251 252 253 256 260 261 258 253 249 249 252 255 259 262 259 255 255 256 257 257 257 257 258 259 262 264 263 260 260 261 262 264 266 267 268 270 271 272 273 273 274 274 274 274 274 275 276 277 278 278 279 280 281 282 282 282 281 281 282 283 283 283 281 279 279 281 283 284 283 280 278 276 276 275 275 275 276 278 280
250 249 249 250 252 254 254 254 254 254 257 259 259 256 252 248 248 250 256 262 263 256 251 253 258 260 259 256 256 258 260 261 263 263 262 263 264 264 266 267 268 269 270 271 272 272 273 273 273 274 274 275 275 276 276 277 277 278 278 279 279 279 279 280 280 281 282 282 280 279 279 282 283 282 280 278 277 277 276 275 275 275 277 279 282 285
246 246 247 248 250 252 253 254 255 256 257 258 257 253 251 250 252 255 259 262 259 256 255 255 257 259 258 256 257 259 261 263 266 266 266 266 266 267 267 268 268 269 269 270 271 272 273 274 274 275 275 275 275 275 275 276 276 276 277 277 277 278 279 280 280 280 280 279 280 281 282 283 281 279 278 277 276 276 275 275 277 279 281 284 286 287
245 246 247 248 251 253 254 253 254 256 257 257 255 253 252 255 258 260 260 259 257 257 257 255 256 258 258 258 260 261 263 265 267 267 268 268 268 269 269 269 269 270 270 271 271 271 272 273 273 274 274 273 274 274 274 275 275 276 276 276 277 278 278 278 278 278 279 280 281 282 281 280 279 278 277 276 275 276 277 279 280 282 284 285 286 287
245 247 249 251 253 256 256 256 257 258 258 256 254 253 253 255 256 257 257 257 257 257 256 257 258 260 261 262 262 263 264 266 267 268 269 269 269 269 269 269 269 269 269 269 269 270 271 272 272 273 273 273 274 274 275 275 276 276 276 277 277 277 277 277 278 279 280 281 281 280 278 278 277 277 277 277 278 279 280 281 283 284 285 285 285 286
247 249 251 252 253 254 255 256 257 258 257 257 256 256 255 253 253 255 257 259 261 261 261 261 261 261 263 263 263 264 266 267 267 268 267 267 267 267 266 265 265 266 267 269 270 272 273 274 275 275 275 275 275 276 276 276 276 277 277 277 277 278 278 280 281 281 281 280 280 279 278 278 278 278 279 279 280 281 282 283 284 284 285 285 285 286
243 245 246 247 248 249 250 252 254 255 257 257 257 256 256 256 256 259 262 263 264 264 263 262 262 263 264 264 264 265 265 266 266 265 263 262 262 262 263 264 266 268 270 272 273 274 275 276 276 276 277 277 277 277 277 277 277 277 277 278 279 280 281 281 281 281 280 280 279 278 278 278 278 279 280 281 282 283 283 284 284 284 285 285 286 287
236 238 240 241 242 244 245 247 249 252 253 253 254 256 257 258 259 261 263 265 265 264 263 263 263 264 264 264 264 264 263 263 262 260 259 259 260 262 265 267 270 272 274 275 276 276 277 277 278 278 278 277 277 277 278 277 278 278 279 280 280 281 281 280 279 279 278 278 277 277 278 278 279 280 282 283 283 284 284 284 285 285 286 286 287 287
234 236 239 240 240 241 243 243 244 247 250 250 251 253 256 258 261 263 264 264 264 264 265 265 264 264 264 264 262 260 259 258 257 257 258 260 263 266 268 271 274 276 277 277 278 278 278 278 278 278 278 278 278 279 279 280 280 280 280 281 280 279 279 278 277 277 276 277 277 278 279 281 282 283 284 285 285 285 286 286 286 286 286 286 287 287
240 242 244 245 246 245 244 243 244 247 249 250 252 256 260 263 266 266 266 265 264 264 264 263 262 261 260 259 258 257 257 257 257 259 262 265 268 270 272 275 276 277 277 278 278 279 279 279 279 279 279 279 280 280 281 281 281 281 280 279 278 278 277 277 277 277 277 278 280 281 283 284 285 285 286 286 286 287 287 287 286 286 286 286 286 287
246 248 249 250 252 251 248 247 250 254 254 254 257 263 265 266 266 265 265 265 264 264 264 263 261 260 259 259 260 261 262 263 264 265 267 269 272 273 275 276 276 276 277 278 279 279 280 280 280 280 280 280 280 280 280 280 279 278 278 277 276 276 276 277 278 278 280 281 283 285 286 286 287 287 287 287 287 287 287 286 286 286 286 286 287 288
249 252 253 254 255 255 253 253 255 257 256 255 257 261 263 263 264 264 264 264 265 266 267 267 266 266 267 268 269 270 271 272 272 272 272 272 273 273 274 275 276 277 278 279 280 280 280 280 279 279 278 278 278 277 277 277 276 275 275 275 276 276 277 278 279 281 283 285 286 287 287 287 287 288 288 287 287 287 286 286 286 286 287 288 288 289
Height
5831 5832 5834 5836 5836 5836 5836 5838 5839 5840 5840 5841 5841 5841 5842 5843 5843 5842 5841 5840 5840 5839 5840 5841 5840 5842 5845 5846 5845 5843 5843 5843 5842 5842 5841 5840 5839 5838 5837 5837 5836 5835 5835 5834 5834 5834 5833 5833 5833 5832 5832 5832 5832 5831 5830 5830 5830 5829 5828 5828 5827 5827 5826 5826 5825 5825 5825 5824 5824 5824 5823 5823 5823 5823 5823 5823 5823 5823 5823 5823 5823 5822 5822 5822 5822 5821
5827 5829 5831 5832 5832 5833 5834 5835 5836 5837 5837 5838 5838 5838 5839 5839 5840 5839 5838 5838 5837 5835 5837 5838 5836 5838 5841 5842 5843 5842 5841 5841 5840 5839 5839 5838 5836 5835 5834 5834 5833 5832 5832 5831 5831 5830 5830 5830 5830 5830 5830 5829 5829 5828 5828 5827 5826 5826 5825 5825 5824 5823 5823 5823 5822 5822 5822 5821 5821 5821 5820 5820 5820 5820 5820 5820 5820 5820 5820 5819 5819 5819 5819 5818 5818 5818
5823 5827 5828 5828 5829 5830 5831 5832 5833 5834 5834 5835 5835 5835 5836 5836 5836 5836 5835 5835 5834 5833 5833 5834 5833 5834 5837 5838 5839 5839 5838 5838 5837 5836 5836 5834 5833 5832 5831 5830 5830 5829 5829 5828 5827 5827 5826 5827 5827 5827 5826 5826 5825 5825 5824 5824 5823 5823 5822 5821 5821 5820 5820 5820 5819 5818 5818 5818 5818 5817 5817 5817 5816 5817 5817 5816 5816 5816 5816 5816 5816 5815 5815 5815 5815 5814
5821 5823 5824 5824 5826 5827 5828 5829 5830 5830 5831 5831 5831 5832 5832 5832 5832 5832 5832 5832 5831 5830 5829 5829 5828 5829 5832 5835 5836 5836 5834 5835 5834 5833 5832 5831 5830 5828 5827 5827 5827 5826 5825 5824 5824 5823 5822 5823 5823 5823 5823 5823 5822 5822 5821 5820 5820 5819 5819 5818 5818 5817 5816 5816 5816 5815 5814 5814 5814 5814 5813 5813 5813 5813 5813 5813 5813 5813 5813 5813 5812 5812 5812 5811 5811 5810
5817 5819 5820 5822 5823 5824 5825 5826 5827 5827 5827 5827 5828 5829 5829 5829 5828 5828 5828 5828 5828 5827 5826 5825 5822 5822 5828 5832 5833 5833 5831 5831 5832 5829 5828 5827 5825 5824 5824 5824 5824 5823 5822 5821 5820 5819 5819 5819 5819 5819 5819 5819 5819 5818 5817 5817 5817 5816 5816 5815 5815 5814 5813 5812 5812 5811 5810 5810 5810 5810 5810 5809 5809 5809 5809 5809 5809 5809 5809 5809 5809 5809 5808 5808 5807 5807
5814 5815 5817 5818 5819 5820 5822 5823 5823 5822 5822 5823 5825 5825 5825 5825 5824 5824 5824 5823 5824 5824 5823 5822 5816 5813 5821 5828 5830 5830 5829 5829 5829 5828 5825 5822 5821 5821 5821 5821 5820 5819 5818 5817 5817 5816 5815 5815 5815 5815 5815 5815 5815 5814 5813 5813 5813 5813 5812 5811 5811 5810 5809 5808 5808 5807 5807 5806 5806 5806 5806 5806 5806 5806 5805 5806 5806 5806 5806 5806 5805 5805 5805 5804 5804 5803
5812 5812 5813 5814 5816 5817 5818 5818 5819 5817 5818 5819 5821 5822 5821 5821 5821 5820 5820 5820 5819 5820 5820 5819 5814 5807 5811 5822 5827 5826 5825 5826 5827 5826 5822 5819 5817 5817 5817 5816 5816 5815 5814 5814 5813 5812 5812 5811 5811 5812 5811 5811 5811 5810 5810 5810 5809 5809 5808 5808 5807 5806 5805 5804 5804 5803 5803 5802 5802 5802 5802 5802 5802 5802 5802 5802 5802 5802 5802 5802 5802 5801 5801 5801 5800 5800
5808 5808 5808 5810 5810 5812 5813 5815 5814 5813 5813 5816 5818 5818 5817 5817 5817 5816 5816 5816 5815 5816 5815 5814 5812 5803 5801 5813 5823 5822 5822 5824 5824 5822 5819 5816 5815 5814 5813 5812 5811 5811 5811 5810 5810 5809 5808 5808 5807 5807 5807 5807 5807 5807 5806 5806 5806 5805 5805 5804 5803 5803 5801 5800 5800 5799 5799 5798 5798 5798 5798 5798 5798 5798 5798 5798 5798 5798 5798 5798 5798 5798 5797 5797 5797 5796
5802 5801 5803 5804 5804 5807 5810 5810 5809 5808 5810 5812 5813 5812 5812 5813 5812 5812 5812 5811 5812 5812 5811 5810 5808 5800 5795 5804 5814 5817 5819 5820 5820 5819 5816 5813 5812 5810 5809 5807 5807 5807 5807 5807 5806 5805 5805 5804 5803 5803 5803 5803 5803 5803 5802 5802 5802 5801 5801 5800 5799 5799 5797 5796 5796 5795 5795 5795 5794 5794 5794 5794 5794 5794 5794 5794 5794 5794 5794 5794 5794 5794 5794 5793 5793 5792
5794 5796 5798 5799 5801 5803 5805 5805 5804 5805 5806 5807 5808 5807 5807 5807 5807 5808 5808 5808 5808 5807 5807 5808 5804 5796 5791 5794 5805 5813 5815 5814 5815 5815 5812 5810 5809 5807 5805 5804 5803 5804 5803 5803 5802 5801 5800 5800 5799 5799 5799 5799 5799 5798 5798 5798 5797 5797 5797 5796 5795 5794 5793 5792 5791 5791 5791 5791 5790 5790 5790 5790 5790 5790 5790 5790 5790 5790 5790 5790 5790 5790 5790 5790 5789 5789
5789 5791 5793 5794 5797 5800 5800 5800 5800 5801 5801 5802 5803 5802 5802 5802 5803 5804 5804 5804 5803 5802 5804 5804 5800 5795 5787 5785 5797 5809 5810 5809 5810 5810 5808 5807 5805 5803 5802 5801 5800 5800 5799 5799 5798 5797 5796 5796 5795 5795 5795 5795 5794 5794 5794 5793 5793 5793 5792 5791 5790 5790 5789 5787 5787 5787 5787 5787 5786 5786 5786 5786 5787 5786 5786 5787 5786 5786 5786 5786 5787 5787 5786 5786 5785 5785
5784 5786 5789 5791 5794 5795 5795 5795 5795 5795 5795 5796 5797 5798 5798 5798 5798 5798 5799 5800 5797 5798 5801 5799 5795 5791 5782 5780 5792 5802 5804 5805 5805 5805 5804 5802 5801 5800 5799 5798 5797 5796 5795 5794 5794 5793 5793 5792 5792 5791 5791 5791 5790 5790 5789 5789 5789 5788 5788 5787 5786 5785 5785 5783 5783 5783 5783 5783 5782 5782 5782 5783 5783 5783 5783 5783 5783 5783 5783 5783 5783 5783 5782 5782 5781 5781
5779 5781 5784 5785 5787 5788 5789 5789 5790 5790 5791 5792 5793 5794 5793 5792 5792 5793 5794 5793 5792 5794 5796 5794 5790 5783 5777 5781 5790 5795 5798 5800 5799 5799 5799 5797 5797 5796 5795 5795 5794 5792 5791 5790 5790 5789 5789 5788 5788 5787 5787 5787 5786 5785 5785 5784 5784 5784 5784 5783 5782 5781 5780 5780 5779 5779 5779 5778 5778 5778 5778 5779 5779 5779 5779 5779 5779 5779 5779 5779 5779 5779 5778 5778 5777 5777
5772 5775 5777 5778 5780 5783 5783 5784 5786 5786 5787 5787 5788 5788 5788 5788 5787 5786 5788 5787 5786 5789 5790 5789 5784 5776 5773 5780 5786 5790 5794 5795 5795 5795 5793 5791 5791 5792 5791 5790 5789 5788 5787 5786 5785 5785 5784 5784 5783 5783 5783 5782 5782 5781 5780 5780 5780 5779 5779 5778 5777 5776 5776 5776 5775 5775 5774 5774 5774 5774 5774 5775 5774 5774 5775 5775 5775 5775 5775 5775 5775 5775 5774 5774 5773 5773
5766 5768 5773 5775 5775 5778 5779 5780 5781 5781 5781 5781 5782 5782 5782 5784 5782 5781 5782 5781 5780 5782 5783 5783 5779 5773 5774 5778 5780 5783 5788 5790 5790 5790 5788 5785 5785 5787 5787 5786 5784 5784 5782 5781 5781 5780 5779 5779 5779 5779 5778 5778 5777 5776 5776 5775 5775 5775 5774 5774 5773 5772 5772 5772 5771 5771 5770 5770 5770 5770 5770 5770 5770 5770 5770 5770 5771 5771 5770 5770 5770 5770 5770 5769 5768 5768
5760 5763 5769 5770 5770 5773 5774 5774 5775 5774 5774 5775 5776 5776 5776 5780 5779 5775 5775 5776 5776 5775 5775 5776 5773 5771 5774 5774 5774 5778 5782 5784 5784 5783 5783 5781 5779 5781 5782 5780 5779 5778 5777 5776 5776 5775 5774 5774 5774 5774 5774 5773 5772 5772 5771 5770 5770 5770 5770 5769 5769 5768 5768 5768 5767 5767 5767 5766 5766 5766 5766 5766 5766 5766 5766 5766 5766 5766 5766 5766 5766 5765 5765 5764 5763 5762
5754 5757 5763 5763 5763 5766 5767 5767 5768 5768 5768 5768 5770 5771 5773 5775 5773 5770 5769 5771 5772 5769 5769 5771 5768 5768 5770 5768 5770 5775 5777 5778 5779 5778 5778 5777 5776 5775 5775 5774 5773 5773 5772 5771 5771 5771 5770 5770 5770 5769 5769 5768 5768 5767 5766 5766 5766 5765 5765 5765 5764 5764 5764 5764 5763 5763 5762 5762 5762 5762 5762 5761 5762 5762 5762 5762 5761 5761 5761 5761 5761 5760 5759 5759 5758 5757
5749 5750 5754 5756 5756 5759 5760 5760 5761 5761 5762 5762 5763 5766 5768 5767 5766 5766 5764 5765 5766 5763 5763 5766 5764 5763 5764 5763 5766 5772 5772 5771 5772 5772 5773 5774 5773 5771 5769 5768 5767 5767 5767 5767 5766 5766 5766 5766 5766 5765 5764 5764 5763 5763 5762 5761 5761 5761 5761 5761 5760 5760 5760 5759 5759 5758 5758 5758 5758 5758 5758 5757 5757 5757 5757 5757 5757 5757 5757 5756 5755 5755 5754 5753 5752 5751
5743 5742 5746 5748 5748 5750 5752 5752 5753 5755 5756 5756 5758 5760 5761 5760 5761 5762 5759 5759 5760 5757 5756 5760 5760 5758 5759 5761 5764 5766 5766 5766 5766 5766 5767 5769 5769 5767 5765 5764 5762 5761 5762 5762 5761 5761 5761 5761 5760 5760 5760 5759 5758 5758 5757 5757 5757 5757 5757 5756 5756 5755 5755 5755 5754 5754 5754 5754 5754 5753 5753 5753 5753 5753 5752 5752 5752 5752 5751 5751 5750 5749 5748 5747 5746 5744
5736 5735 5737 5740 5741 5741 5742 5744 5747 5750 5750 5750 5752 5753 5754 5754 5755 5755 5753 5752 5752 5751 5750 5752 5753 5753 5756 5759 5759 5759 5760 5761 5759 5759 5762 5765 5764 5762 5761 5759 5758 5757 5757 5757 5757 5756 5756 5755 5755 5755 5754 5754 5753 5753 5752 5752 5752 5752 5752 5751 5751 5751 5750 5750 5750 5750 5749 5749 5749 5749 5748 5748 5748 5748 5747 5747 5747 5747 5746 5745 5744 5743 5742 5741 5739 5738
5727 5726 5728 5731 5732 5731 5734 5738 5742 5744 5744 5744 5745 5746 5747 5748 5747 5746 5746 5745 5746 5745 5744 5745 5745 5750 5755 5755 5753 5753 5754 5754 5753 5754 5758 5760 5759 5757 5756 5755 5754 5753 5753 5753 5752 5752 5751 5751 5750 5750 5749 5749 5748 5748 5748 5748 5747 5747 5747 5746 5746 5746 5746 5746 5745 5745 5744 5744 5744 5743 5743 5743 5743 5743 5742 5742 5742 5741 5740 5739 5738 5737 5735 5734 5733 5732
5720 5719 5721 5722 5724 5726 5730 5733 5735 5735 5736 5736 5737 5739 5741 5741 5740 5739 5737 5737 5738 5738 5739 5741 5740 5746 5752 5750 5747 5748 5747 5746 5748 5750 5753 5754 5753 5752 5751 5750 5750 5750 5750 5749 5748 5747 5747 5746 5746 5745 5745 5744 5744 5743 5743 5743 5742 5742 5742 5741 5741 5741 5741 5741 5740 5740 5739 5739 5739 5738 5738 5738 5738 5738 5737 5737 5736 5735 5734 5733 5732 5730 5729 5728 5727 5725
5713 5711 5711 5712 5717 5721 5722 5724 5725 5726 5727 5728 5728 5732 5734 5733 5732 5730 5729 5732 5733 5733 5736 5737 5734 5741 5748 5745 5742 5742 5740 5740 5743 5745 5747 5748 5748 5746 5745 5745 5745 5745 5745 5744 5744 5743 5742 5742 5742 5741 5740 5740 5739 5739 5738 5738 5737 5737 5737 5737 5736 5736 5736 5735 5735 5734 5734 5734 5734 5734 5734 5733 5733 5733 5732 5731 5731 5729 5728 5727 5725 5724 5723 5722 5720 5719
5703 5700 5701 5704 5708 5711 5712 5715 5718 5719 5720 5720 5721 5725 5726 5725 5726 5725 5725 5727 5727 5728 5733 5731 5729 5736 5742 5741 5738 5735 5734 5736 5737 5737 5739 5741 5742 5739 5739 5740 5740 5740 5740 5739 5739 5739 5738 5737 5737 5736 5736 5736 5735 5734 5733 5733 5732 5732 5732 5732 5732 5731 5730 5730 5730 5730 5730 5730 5729 5729 5729 5729 5728 5727 5727 5726 5725 5723 5722 5720 5719 5718 5716 5715 5714 5712
5696 5694 5697 5698 5699 5701 5704 5707 5710 5712 5713 5713 5716 5719 5719 5720 5721 5720 5721 5721 5719 5724 5728 5723 5722 5730 5735 5736 5734 5731 5731 5732 5732 5730 5731 5735 5736 5733 5732 5734 5735 5734 5734 5734 5734 5733 5733 5733 5732 5731 5731 5730 5730 5729 5728 5728 5727 5727 5727 5727 5726 5726 5725 5725 5725 5725 5725 5724 5724 5724 5724 5723 5722 5722 5721 5720 5718 5717 5715 5714 5713 5711 5710 5709 5707 5705
5688 5687 5690 5690 5688 5691 5696 5700 5705 5708 5707 5707 5710 5713 5714 5715 5715 5714 5715 5713 5712 5719 5720 5714 5717 5727 5730 5729 5728 5728 5728 5728 5728 5725 5724 5727 5728 5726 5726 5727 5728 5728 5727 5727 5728 5728 5728 5727 5727 5726 5725 5725 5724 5723 5723 5723 5722 5722 5722 5721 5721 5720 5719 5719 5719 5719 5719 5719 5718 5718 5717 5717 5716 5715 5714 5713 5711 5710 5709 5708 5706 5705 5703 5702 5700 5698
5680 5679 5681 5682 5681 5685 5692 5697 5700 5700 5699 5700 5703 5705 5705 5706 5706 5706 5705 5703 5707 5712 5708 5708 5716 5721 5722 5723 5723 5724 5724 5722 5722 5721 5718 5720 5721 5720 5721 5721 5720 5721 5720 5721 5722 5721 5721 5721 5720 5720 5720 5719 5719 5718 5718 5718 5717 5717 5716 5715 5715 5714 5714 5714 5714 5714 5713 5713 5713 5712 5711 5711 5710 5709 5708 5706 5705 5704 5703 5701 5700 5698 5697 5695 5693 5691
5672 5671 5673 5675 5676 5680 5688 5692 5691 5689 5691 5693 5696 5696 5697 5698 5698 5696 5694 5698 5705 5701 5697 5707 5715 5711 5714 5720 5719 5718 5718 5716 5716 5714 5713 5715 5715 5715 5715 5713 5712 5714 5714 5714 5714 5714 5714 5714 5714 5714 5713 5713 5713 5713 5713 5712 5712 5711 5710 5710 5709 5709 5709 5708 5708 5708 5708 5707 5707 5706 5706 5705 5704 5703 5701 5700 5699 5697 5696 5695 5693 5692 5690 5688 5686 5684
5664 5663 5667 5670 5670 5674 5682 5685 5683 5682 5685 5687 5688 5688 5690 5691 5689 5687 5689 5696 5699 5690 5690 5706 5708 5700 5707 5716 5714 5713 5713 5710 5709 5708 5708 5710 5710 5710 5709 5707 5707 5708 5708 5707 5707 5707 5708 5708 5708 5708 5707 5707 5707 5707 5707 5706 5705 5705 5704 5704 5704 5703 5703 5703 5703 5702 5702 5702 5701 5700 5700 5699 5697 5696 5695 5694 5692 5691 5690 5689 5687 5685 5683 5681 5679 5678
5656 5657 5662 5664 5663 5666 5674 5678 5677 5677 5678 5679 5680 5681 5682 5683 5682 5683 5685 5691 5690 5682 5685 5698 5697 5693 5702 5709 5708 5709 5708 5704 5703 5703 5704 5705 5704 5702 5702 5702 5703 5702 5701 5701 5701 5701 5702 5701 5701 5701 5700 5701 5700 5700 5700 5699 5699 5699 5699 5698 5698 5698 5698 5697 5697 5697 5696 5696 5696 5694 5693 5692 5691 5690 5688 5687 5686 5684 5683 5682 5681 5679 5677 5675 5673 5671
5649 5651 5656 5658 5655 5656 5666 5671 5670 5668 5668 5669 5670 5671 5674 5675 5676 5677 5679 5682 5681 5676 5680 5688 5686 5688 5698 5702 5701 5701 5699 5697 5698 5699 5699 5698 5696 5695 5695 5696 5696 5695 5695 5696 5695 5695 5695 5695 5696 5695 5694 5694 5693 5692 5693 5693 5693 5694 5693 5693 5693 5693 5692 5691 5691 5691 5691 5690 5689 5688 5687 5685 5684 5683 5682 5680 5679 5677 5676 5675 5674 5672 5670 5668 5667 5665
5644 5644 5648 5650 5644 5646 5659 5664 5660 5659 5658 5656 5658 5663 5668 5670 5670 5671 5673 5675 5674 5673 5676 5678 5676 5683 5695 5696 5692 5692 5690 5687 5689 5690 5690 5690 5689 5689 5689 5690 5690 5690 5690 5690 5690 5690 5689 5689 5690 5689 5688 5686 5685 5686 5686 5686 5687 5688 5687 5687 5687 5687 5686 5686 5686 5685 5685 5684 5682 5681 5680 5679 5677 5676 5675 5673 5672 5671 5670 5668 5667 5665 5663 5662 5660 5658
5638 5638 5641 5642 5636 5639 5652 5656 5652 5650 5644 5640 5650 5662 5665 5664 5664 5664 5665 5668 5669 5668 5667 5667 5669 5679 5688 5685 5681 5681 5680 5678 5680 5681 5681 5682 5683 5683 5684 5685 5684 5684 5684 5684 5684 5685 5683 5683 5683 5683 5682 5681 5680 5680 5680 5680 5682 5682 5682 5682 5681 5680 5679 5679 5679 5678 5678 5677 5675 5674 5674 5672 5671 5670 5668 5667 5665 5663 5662 5661 5659 5657 5655 5654 5652 5650
5631 5633 5635 5636 5631 5632 5644 5648 5642 5634 5627 5634 5653 5663 5660 5657 5656 5655 5657 5662 5663 5660 5658 5659 5664 5671 5676 5675 5674 5674 5673 5673 5674 5674 5674 5675 5676 5677 5678 5679 5678 5677 5678 5678 5678 5677 5676 5676 5676 5676 5676 5676 5675 5674 5674 5675 5676 5676 5675 5675 5675 5674 5673 5672 5672 5672 5671 5670 5669 5668 5667 5665 5664 5663 5661 5660 5658 5656 5655 5653 5652 5650 5648 5647 5645 5644
5624 5626 5627 5629 5626 5626 5635 5638 5626 5616 5621 5638 5652 5654 5651 5650 5650 5648 5649 5654 5655 5652 5652 5654 5658 5665 5670 5670 5669 5667 5666 5666 5666 5666 5669 5669 5670 5672 5672 5672 5672 5671 5671 5670 5670 5669 5669 5669 5670 5670 5670 5669 5669 5668 5668 5669 5669 5669 5669 5669 5669 5669 5668 5667 5666 5666 5665 5664 5662 5661 5660 5659 5657 5656 5654 5652 5651 5649 5648 5647 5646 5645 5643 5641 5639 5637
5617 5618 5619 5620 5619 5619 5623 5622 5613 5612 5624 5635 5640 5643 5646 5645 5644 5641 5639 5644 5649 5648 5647 5649 5654 5660 5662 5662 5661 5659 5657 5657 5657 5661 5665 5665 5665 5666 5665 5665 5665 5663 5663 5663 5662 5662 5662 5662 5663 5663 5663 5663 5662 5662 5662 5662 5662 5662 5662 5662 5662 5662 5662 5661 5660 5659 5658 5657 5656 5654 5653 5651 5649 5648 5646 5645 5644 5643 5642 5641 5640 5638 5635 5633 5631 5629
5610 5611 5611 5611 5610 5611 5612 5610 5610 5613 5617 5623 5631 5639 5641 5638 5638 5635 5630 5634 5643 5644 5641 5643 5647 5651 5652 5653 5654 5652 5648 5648 5650 5658 5664 5661 5659 5658 5656 5656 5656 5654 5655 5655 5654 5655 5655 5655 5656 5656 5656 5656 5656 5655 5655 5655 5655 5655 5655 5655 5655 5654 5654 5654 5652 5651 5650 5649 5647 5646 5645 5644 5642 5641 5640 5639 5638 5636 5635 5633 5631 5629 5627 5625 5623 5621
5602 5603 5604 5603 5602 5604 5604 5603 5604 5603 5604 5616 5630 5635 5633 5631 5632 5629 5620 5622 5634 5639 5638 5637 5638 5640 5643 5645 5646 5644 5640 5638 5644 5656 5660 5655 5650 5649 5647 5647 5648 5646 5647 5648 5647 5648 5648 5648 5649 5649 5649 5649 5649 5648 5648 5648 5648 5648 5648 5648 5647 5646 5645 5644 5643 5642 5641 5639 5638 5637 5636 5636 5635 5634 5633 5632 5630 5629 5626 5625 5623 5621 5619 5617 5615 5613
5594 5595 5598 5595 5593 5596 5597 5594 5594 5592 5597 5616 5627 5626 5623 5622 5623 5620 5610 5612 5629 5638 5634 5628 5627 5630 5635 5637 5637 5636 5632 5631 5639 5650 5651 5644 5642 5641 5639 5639 5640 5640 5640 5641 5640 5641 5641 5641 5641 5641 5641 5642 5641 5641 5641 5641 5641 5640 5640 5640 5639 5638 5637 5635 5634 5633 5632 5631 5630 5630 5629 5628 5627 5626 5625 5624 5622 5621 5619 5618 5616 5614 5612 5609 5607 5604
5585 5587 5588 5585 5584 5588 5588 5586 5585 5586 5595 5612 5619 5614 5613 5615 5614 5608 5600 5608 5628 5633 5625 5620 5619 5623 5629 5629 5628 5628 5626 5627 5633 5639 5638 5635 5635 5634 5633 5633 5633 5633 5633 5633 5633 5634 5634 5634 5634 5634 5634 5634 5634 5634 5634 5634 5634 5633 5632 5632 5631 5630 5628 5627 5626 5625 5624 5624 5624 5623 5621 5620 5619 5618 5617 5616 5615 5614 5612 5611 5608 5606 5604 5601 5598 5596
5577 5579 5578 5578 5579 5582 5581 5579 5578 5581 5592 5607 5609 5605 5604 5604 5601 5597 5598 5611 5623 5621 5617 5616 5613 5616 5621 5621 5619 5620 5621 5621 5624 5627 5628 5628 5628 5627 5626 5626 5626 5626 5626 5626 5626 5626 5626 5626 5627 5627 5627 5627 5627 5627 5627 5627 5626 5625 5625 5624 5623 5621 5620 5619 5619 5618 5617 5617 5616 5614 5613 5612 5611 5611 5610 5610 5609 5607 5605 5603 5600 5598 5595 5592 5589 5587
5571 5570 5570 5572 5574 5575 5575 5574 5571 5574 5588 5601 5599 5594 5594 5593 5591 5596 5603 5609 5610 5609 5610 5610 5606 5608 5611 5611 5612 5613 5613 5614 5615 5617 5619 5619 5619 5619 5619 5619 5619 5619 5619 5619 5619 5619 5619 5619 5620 5620 5620 5620 5620 5619 5619 5619 5618 5618 5617 5616 5615 5614 5613 5612 5611 5610 5609 5608 5607 5606 5605 5604 5604 5604 5603 5602 5601 5599 5596 5594 5592 5589 5587 5584 5581 5579
5564 5562 5561 5564 5568 5570 5569 5567 5565 5570 5585 5595 5590 5583 5584 5587 5590 5595 5598 5598 5598 5600 5601 5600 5599 5600 5600 5602 5605 5606 5606 5608 5608 5608 5610 5610 5611 5612 5612 5612 5612 5612 5612 5612 5612 5612 5612 5612 5612 5612 5612 5612 5612 5611 5612 5611 5611 5610 5609 5608 5607 5607 5606 5605 5603 5602 5601 5600 5599 5599 5598 5597 5597 5596 5595 5593 5592 5590 5587 5585 5583 5581 5578 5576 5573 5570
5553 5553 5554 5558 5563 5562 5559 5559 5562 5569 5580 5584 5579 5575 5578 5582 5585 5586 5585 5587 5590 5592 5592 5592 5593 5593 5593 5595 5598 5598 5599 5601 5600 5601 5602 5602 5603 5604 5604 5605 5605 5604 5604 5605 5604 5605 5605 5605 5605 5605 5605 5605 5604 5604 5604 5603 5603 5602 5601 5600 5600 5599 5597 5596 5595 5594 5593 5593 5592 5591 5591 5590 5589 5587 5586 5584 5582 5580 5578 5576 5574 5572 5569 5567 5564 5561
5544 5549 5550 5552 5553 5552 5551 5555 5559 5564 5569 5571 5571 5571 5572 5574 5576 5576 5578 5581 5583 5583 5585 5586 5586 5586 5587 5588 5589 5590 5592 5592 5593 5594 5595 5595 5596 5597 5597 5597 5597 5597 5597 5597 5597 5598 5598 5598 5598 5598 5597 5597 5596 5595 5595 5595 5594 5594 5593 5592 5591 5590 5589 5588 5587 5586 5586 5585 5584 5584 5582 5581 5580 5578 5577 5575 5573 5572 5569 5567 5565 5563 5560 5557 5555 5552
5538 5541 5541 5541 5541 5542 5543 5548 5553 5558 5562 5564 5564 5564 5564 5566 5568 5570 5571 5572 5574 5576 5578 5579 5579 5580 5580 5581 5582 5583 5584 5585 5586 5586 5587 5588 5589 5589 5589 5590 5590 5590 5590 5590 5590 5590 5590 5590 5590 5589 5589 5589 5588 5587 5587 5587 5586 5585 5584 5584 5583 5581 5580 5580 5579 5579 5578 5577 5576 5575 5574 5573 5571 5570 5568 5566 5565 5563 5561 5558 5556 5553 5550 5548 5545 5542
5528 5532 5531 5531 5532 5532 5534 5542 5549 5552 5553 5555 5556 5556 5558 5560 5561 5562 5562 5562 5564 5567 5569 5571 5572 5573 5573 5574 5575 5575 5576 5578 5579 5579 5580 5581 5581 5581 5582 5582 5582 5582 5582 5582 5582 5582 5582 5582 5582 5581 5581 5580 5580 5580 5580 5579 5578 5577 5576 5575 5574 5573 5573 5572 5572 5571 5570 5569 5568 5567 5566 5564 5563 5561 5560 5558 5556 5554 5552 5549 5547 5544 5541 5538 5535 5533
5522 5525 5522 5520 5523 5524 5527 5536 5543 5542 5543 5547 5549 5551 5553 5553 5552 5553 5553 5553 5555 5559 5561 5563 5564 5565 5566 5566 5567 5567 5568 5570 5570 5571 5572 5572 5573 5573 5573 5573 5573 5574 5574 5574 5574 5574 5574 5574 5574 5574 5573 5573 5573 5573 5572 5571 5571 5569 5568 5568 5567 5566 5566 5565 5564 5564 5563 5561 5560 5559 5557 5556 5554 5552 5551 5548 5546 5545 5542 5539 5537 5534 5532 5529 5527 5524
5515 5513 5511 5513 5515 5516 5521 5530 5536 5536 5537 5541 5542 5544 5545 5544 5542 5543 5545 5547 5549 5552 5553 5554 5555 5557 5558 5558 5559 5560 5561 5561 5562 5563 5563 5564 5564 5564 5564 5564 5565 5565 5565 5566 5566 5566 5566 5567 5566 5566 5566 5566 5565 5565 5564 5563 5563 5561 5561 5560 5559 5559 5558 5557 5556 5556 5554 5553 5552 5550 5549 5547 5545 5543 5541 5539 5537 5535 5533 5530 5528 5525 5522 5520 5518 5515
5503 5503 5505 5508 5507 5509 5517 5527 5529 5528 5529 5532 5534 5534 5533 5532 5533 5535 5539 5541 5543 5544 5545 5547 5547 5549 5550 5551 5552 5553 5553 5554 5555 5555 5555 5555 5556 5555 5556 5556 5556 5557 5557 5558 5558 5558 5559 5559 5558 5558 5558 5557 5557 5557 5556 5555 5554 5554 5553 5552 5552 5551 5550 5549 5548 5547 5545 5544 5543 5541 5540 5538 5536 5534 5532 5530 5528 5526 5523 5521 5519 5516 5513 5511 5508 5506
5495 5496 5499 5500 5499 5503 5512 5518 5518 5516 5519 5523 5525 5524 5523 5523 5526 5529 5532 5534 5535 5537 5538 5539 5540 5541 5543 5544 5545 5546 5546 5547 5547 5547 5547 5548 5547 5547 5548 5548 5549 5549 5550 5550 5550 5551 5551 5551 5550 5550 5549 5549 5549 5548 5548 5547 5546 5546 5545 5544 5544 5543 5542 5541 5540 5538 5537 5536 5534 5532 5531 5529 5527 5525 5523 5521 5519 5516 5514 5512 5509 5507 5504 5501 5499 5496